VEERY-RL1

导读

VEERY-RL1是由美国于2021年3月22日08:00发射的卫星,归属于业余卫星发展体系,服务于全球业余无线电通信实验。它搭载基础通信设备,可支持业余无线电爱好者开展信号转发、通信试验,为爱好者提供空间通信实践平台,也丰富了低轨业余卫星星座资源,推动了民间航天技术交流与无线电通信技术的普及探索。

基本信息
目录编号:
47965
目录名称:
VEERY-RL1
国际标识:
2021-023A
轨道中心:
EARTH
卫星名称:
VEERY-RL1
卫星全名:
--
卫星状态:
已陨落 最后检测时间 2024-03-30
发射日期:
2021-03-22 UTC
国别 :
美国 (US)
星等 :
--
轨道信息
数据来源 国际轨道数据
星历时间: 2024-03-21T07:51:01+0800
轨道信息已过期845天
半长轴: 6622.565km
偏心率: 0.0017685
轨道倾角: 44.937°
近地点辐角 237.705°
升交点赤经 327.731°
平近点角 122.215°
近地点: 232.717km
远地点: 256.143km
周期: 89.392分钟
每日圈数: 16.108809
详细信息
使用方式:
暂无